FW7874 Weather Reports


Display with metric or nautical units.
time (UTC)temp
F
wind
direction
speed
MPH
gust
MPH
rain 1hr
in
rain 24hr
in
rain mn
in
humidity
%
barometer
mb
20260504081404 45 272 0.0 3.0 0.00 0.00 0.00 73 1010.0
20260504070404 45 272 0.0 0.0 0.00 0.00 0.00 71 1010.1
20260504050404 46 272 0.0 0.0 0.00 0.00 0.00 69 1010.5
20260504045404 46 272 0.0 0.0 0.00 0.00 0.00 68 1010.7
20260504044404 46 272 0.0 0.0 0.00 0.00 0.00 68 1010.8
20260504043403 45 272 0.0 0.0 0.00 0.00 0.00 64 1011.1
20260504042404 45 272 0.0 0.0 0.00 0.00 0.00 64 1011.2
20260504041404 45 272 0.0 1.0 0.00 0.00 0.00 64 1011.2
20260504040404 45 272 0.0 0.0 0.00 0.00 0.00 63 1011.2
20260504035404 45 272 0.0 0.0 0.00 0.00 0.00 63 1011.1
20260504034404 45 272 0.0 1.0 0.00 0.00 0.00 63 1011.0
20260504033404 45 272 0.0 0.0 0.00 0.00 0.00 63 1010.9
20260504032404 45 272 0.0 1.0 0.00 0.00 0.00 63 1010.8
20260504031404 45 272 0.0 0.0 0.00 0.00 0.00 62 1010.7
20260504030404 45 272 0.0 0.0 0.00 0.00 0.00 61 1010.7
20260504023404 46 272 0.0 0.0 0.00 0.00 0.00 57 1010.7
20260504022404 46 272 0.0 0.0 0.00 0.00 0.00 55 1010.7
20260504020404 48 272 0.0 0.0 0.00 0.00 0.00 54 1010.8
20260504015404 49 272 0.0 0.0 0.00 0.00 0.00 52 1010.6
20260504012404 50 272 0.0 1.0 0.00 0.00 0.00 47 1010.6
20260504010404 51 272 1.0 6.0 0.00 0.00 0.00 47 1010.4
20260504005404 51 272 2.0 8.0 0.00 0.00 0.00 46 1010.3
20260504004404 51 274 2.0 13.0 0.00 0.00 0.00 45 1010.3
20260504001404 52 268 1.0 12.0 0.00 0.00 0.00 43 1010.0
20260504000404 53 265 3.0 13.0 0.00 0.00 0.00 42 1010.0
20260503235404 53 221 3.0 15.0 0.00 0.00 0.00 41 1009.8
20260503234404 53 273 5.0 16.0 0.00 0.00 0.00 41 1009.8
20260503233405 53 268 6.0 23.0 0.00 0.00 0.00 38 1009.5
20260503232404 54 267 6.0 17.0 0.00 0.00 0.00 38 1009.4
20260503231404 54 258 3.0 17.0 0.00 0.00 0.00 36 1009.3
20260503230405 55 249 7.0 17.0 0.00 0.00 0.00 35 1009.1
20260503225404 55 259 5.0 14.0 0.00 0.00 0.00 34 1009.0
20260503224405 55 277 6.0 20.0 0.00 0.00 0.00 34 1008.9
20260503223404 55 266 3.0 20.0 0.00 0.00 0.00 34 1008.9
20260503222404 56 272 3.0 20.0 0.00 0.00 0.00 34 1008.8
20260503221404 56 292 8.0 17.0 0.00 0.00 0.00 31 1008.8
20260503220404 56 261 4.0 16.0 0.00 0.00 0.00 31 1008.8
20260503215404 56 264 4.0 16.0 0.00 0.00 0.00 32 1008.8
20260503214404 56 252 5.0 20.0 0.00 0.00 0.00 32 1008.9
20260503213404 56 244 6.0 16.0 0.00 0.00 0.00 31 1008.9
20260503212404 56 272 7.0 14.0 0.00 0.00 0.00 30 1008.9
20260503211404 56 275 7.0 20.0 0.00 0.00 0.00 32 1008.9
20260503210404 55 294 5.0 20.0 0.00 0.00 0.00 33 1008.9
20260503205405 55 275 7.0 20.0 0.00 0.00 0.00 33 1008.9
20260503204404 55 234 7.0 22.0 0.00 0.00 0.00 34 1009.0
20260503203404 55 338 7.0 20.0 0.00 0.00 0.00 35 1009.2
20260503201404 56 249 3.0 20.0 0.00 0.00 0.00 37 1009.2
20260503195404 56 345 4.0 20.0 0.00 0.00 0.00 39 1009.4
20260503194404 55 286 3.0 12.0 0.00 0.00 0.00 38 1009.6
20260503193404 55 289 2.0 5.0 0.00 0.00 0.00 44 1009.6
20260503191404 53 261 5.0 15.0 0.00 0.00 0.00 42 1010.0
20260503190404 53 340 2.0 15.0 0.00 0.00 0.00 40 1010.2
20260503185404 53 273 5.0 15.0 0.00 0.00 0.00 41 1010.3
20260503184404 53 311 6.0 20.0 0.00 0.00 0.00 42 1010.3
20260503183405 52 261 6.0 23.0 0.00 0.00 0.00 41 1010.4
20260503182404 53 291 5.0 12.0 0.00 0.00 0.00 43 1010.4
20260503181404 52 263 2.0 15.0 0.00 0.00 0.00 46 1010.4
20260503180404 52 262 6.0 17.0 0.00 0.00 0.00 43 1010.5
20260503174405 51 282 3.0 12.0 0.00 0.00 0.00 49 1010.5
20260503173404 49 270 4.0 16.0 0.00 0.00 0.00 50 1010.7
20260503172404 49 266 6.0 16.0 0.00 0.00 0.00 48 1010.9
20260503171404 49 269 3.0 12.0 0.00 0.00 0.00 48 1010.8
20260503170404 49 271 4.0 20.0 0.00 0.00 0.00 49 1010.8
20260503150404 47 242 3.0 16.0 0.00 0.00 0.00 56 1011.1
20260503131404 45 271 4.0 12.0 0.00 0.00 0.00 63 1011.6
20260503130404 45 355 2.0 7.0 0.00 0.00 0.00 67 1011.7
20260503110404 41 266 3.0 9.0 0.00 0.00 0.00 73 1011.0